Tracking 17147 objects as of 4-July-2015
HD Live streaming from Space Station

SL-19 R/B

Track SL-19 R/B now!
10-day predictions
SL-19 R/B is classified as:


NORAD ID: 36589
Int'l Code: 2010-023B
Perigee: 881.2 km
Apogee: 1,216.5 km
Inclination: 100.5 °
Period: 106.0 minutes
Semi major axis: 7419 km
RCS: 6.505 m2 (large)
Launch date: June 2, 2010
Source: Commonwealth of Independent States (former USSR) (CIS)

Note: This is a ROCKET BODY
Your satellite tracking list
Your tracking list is empty





NASA's NSSDC Master Catalog

Two Line Element Set (TLE):
1 36589U 10023B   15183.14019828 -.00000044  00000-0  73231-5 0  9998
2 36589 100.5412 165.3299 0225950 033.6447 018.8261 13.58345327252164

Source of the keplerian elements: AFSPC

N2YO: 191